sat.trackr.live / text

‹ back to catalog

ONEWEB-0236

NORAD 48797 · 2021-045AG

PAYLOAD ACTIVE UNKNOWN

§ Identity

Operator
Country
UK
Launch date
2021-05-28
Launch site
VOSTO
Launch vehicle
Mass (kg)
RCS (m²)

Purposes: comms

External: N2YO · Heavens-Above · Gunter

§ Orbital elements

Epoch: 2026-09-19T08:02:07.190880Z

Period
109.46 min
Inclination
87.8993°
Eccentricity
0.0001879
Mean motion
13.15548191 rev/d
Perigee alt
1,200.3 km
Apogee alt
1,203.2 km
Semi-major
7,579.9 km
B*
2.8537e-4
RAAN
240.4313°
Arg perigee
85.9454°
Mean anomaly
274.1892°
Rev number
25,663

§ Raw data

ONEWEB-02361 48797U 21045AG  26262.33480545  .00000120  00000+0  28537-3 0  99972 48797  87.8993 240.4313 0001879  85.9454 274.1892 13.15548191256631

JSON: /api/v1/satellites/48797 · /tle

For live sub-satellite position, see the globe view (requires WebGL).

§ Visibility from observer

Set your observer location to see the next 7 days of passes ≥ 10°. The values pass through the URL so the page stays shareable.

No JS? Fill the form by hand. The geolocation button needs JavaScript.